Location: Borz?cin
(51.1714°N, 19.6030°E)
Time: 22:32:19
(UTC+00:00)

Cosmos 1470 - Pass Details

Date: 19 May 2025
Orbit: 455 x 466 km, 82.5° (Epoch: 16 June)

Event Time Altitude Azimuth Distance (km) Brightness Sun altitude
Rises 21:29:38 0° 355° (N) 2,518 7.8 -17.3°
Reaches altitude 10° 21:31:50 10° 4° (N) 1,637 6.3 -17.4°
Maximum altitude 21:35:11 37° 74° (ENE) 745 3.4 -17.5°
Enters shadow 21:36:08 31° 110° (ESE) 852 3.5 -17.6°
